| time (UTC) | temp C | wind direction | speed KPH | gust KPH | rain 1hr cm | rain 24hr cm | rain mn cm | humidity % | barometer mb |
| 20260906192005 | 12 | 1 | 0.0 | 3.2 | 0.00 | 0.03 | 0.03 | 69 | 1029.6 |
| 20260906190007 | 13 | 1 | 0.0 | 3.2 | 0.00 | 0.03 | 0.03 | 68 | 1029.4 |
| 20260906185005 | 13 | 1 | 0.0 | 8.0 | 0.00 | 0.03 | 0.03 | 67 | 1029.5 |
| 20260906184004 | 13 | 1 | 1.6 | 6.4 | 0.00 | 0.03 | 0.03 | 66 | 1029.3 |
| 20260906183005 | 13 | 334 | 0.0 | 9.7 | 0.00 | 0.03 | 0.03 | 65 | 1029.3 |
| 20260906182005 | 13 | 308 | 3.2 | 6.4 | 0.00 | 0.03 | 0.03 | 64 | 1029.2 |
| 20260906181004 | 14 | 1 | 1.6 | 6.4 | 0.00 | 0.03 | 0.03 | 65 | 1029.1 |
| 20260906180005 | 14 | 355 | 1.6 | 12.9 | 0.00 | 0.03 | 0.03 | 65 | 1028.7 |
| 20260906174004 | 14 | 252 | 3.2 | 8.0 | 0.00 | 0.03 | 0.03 | 65 | 1028.6 |
| 20260906173005 | 14 | 236 | 3.2 | 6.4 | 0.00 | 0.03 | 0.03 | 63 | 1028.5 |
| 20260906172005 | 15 | 230 | 3.2 | 6.4 | 0.00 | 0.03 | 0.03 | 61 | 1028.4 |
| 20260906170005 | 16 | 291 | 3.2 | 6.4 | 0.00 | 0.03 | 0.03 | 58 | 1028.3 |
| 20260906165005 | 16 | 347 | 3.2 | 6.4 | 0.00 | 0.03 | 0.03 | 55 | 1028.3 |
| 20260906163005 | 17 | 1 | 3.2 | 9.7 | 0.00 | 0.03 | 0.03 | 51 | 1028.4 |
| 20260906153005 | 19 | 1 | 8.0 | 24.1 | 0.00 | 0.03 | 0.03 | 48 | 1027.8 |
| 20260906152004 | 17 | 347 | 17.7 | 24.1 | 0.00 | 0.03 | 0.03 | 52 | 1027.8 |
| 20260906151005 | 17 | 317 | 11.3 | 33.8 | 0.00 | 0.03 | 0.03 | 51 | 1027.5 |
| 20260906145004 | 17 | 274 | 6.4 | 27.4 | 0.00 | 0.03 | 0.03 | 50 | 1027.3 |
| 20260906144005 | 18 | 270 | 8.0 | 24.1 | 0.00 | 0.03 | 0.03 | 52 | 1027.3 |
| 20260906143005 | 17 | 298 | 6.4 | 27.4 | 0.00 | 0.03 | 0.03 | 49 | 1027.2 |
| 20260906142004 | 18 | 339 | 6.4 | 24.1 | 0.00 | 0.03 | 0.03 | 52 | 1027.1 |
| 20260906140005 | 18 | 350 | 6.4 | 29.0 | 0.00 | 0.03 | 0.03 | 50 | 1027.1 |
| 20260906135004 | 18 | 279 | 16.1 | 35.4 | 0.00 | 0.03 | 0.03 | 50 | 1027.0 |
| 20260906134005 | 18 | 306 | 16.1 | 33.8 | 0.00 | 0.03 | 0.03 | 48 | 1027.0 |
| 20260906133005 | 18 | 290 | 9.7 | 25.7 | 0.00 | 0.03 | 0.03 | 48 | 1026.8 |
| 20260906132005 | 18 | 333 | 12.9 | 37.0 | 0.00 | 0.03 | 0.03 | 46 | 1026.9 |
| 20260906131004 | 18 | 6 | 9.7 | 32.2 | 0.00 | 0.03 | 0.03 | 47 | 1026.9 |
| 20260906130005 | 18 | 304 | 6.4 | 35.4 | 0.00 | 0.03 | 0.03 | 48 | 1026.7 |
| 20260906125005 | 18 | 355 | 12.9 | 29.0 | 0.00 | 0.03 | 0.03 | 49 | 1026.7 |
| 20260906124004 | 18 | 319 | 14.5 | 24.1 | 0.00 | 0.03 | 0.03 | 50 | 1026.8 |
| 20260906123005 | 18 | 333 | 16.1 | 33.8 | 0.00 | 0.03 | 0.03 | 49 | 1026.9 |
| 20260906122005 | 18 | 338 | 6.4 | 27.4 | 0.00 | 0.03 | 0.03 | 49 | 1026.8 |
| 20260906121005 | 18 | 357 | 11.3 | 33.8 | 0.00 | 0.03 | 0.03 | 48 | 1026.7 |
| 20260906120008 | 18 | 290 | 6.4 | 45.1 | 0.00 | 0.03 | 0.03 | 49 | 1026.4 |
| 20260906115005 | 18 | 274 | 9.7 | 37.0 | 0.00 | 0.03 | 0.03 | 48 | 1026.4 |
| 20260906114004 | 17 | 302 | 12.9 | 40.2 | 0.00 | 0.03 | 0.03 | 48 | 1026.3 |
| 20260906113006 | 17 | 290 | 6.4 | 24.1 | 0.00 | 0.03 | 0.03 | 48 | 1026.4 |
| 20260906112004 | 17 | 317 | 8.0 | 35.4 | 0.00 | 0.03 | 0.03 | 48 | 1026.1 |
| 20260906111005 | 17 | 273 | 11.3 | 41.8 | 0.00 | 0.03 | 0.03 | 48 | 1026.4 |
| 20260906110005 | 17 | 317 | 11.3 | 27.4 | 0.00 | 0.03 | 0.03 | 49 | 1026.3 |
| 20260906105005 | 17 | 299 | 12.9 | 29.0 | 0.00 | 0.03 | 0.03 | 49 | 1026.2 |
| 20260906104005 | 17 | 327 | 14.5 | 35.4 | 0.00 | 0.03 | 0.03 | 50 | 1026.0 |
| 20260906103006 | 16 | 326 | 12.9 | 32.2 | 0.00 | 0.03 | 0.03 | 51 | 1026.0 |
| 20260906101004 | 16 | 331 | 16.1 | 37.0 | 0.00 | 0.03 | 0.03 | 53 | 1026.0 |
| 20260906100005 | 16 | 295 | 16.1 | 33.8 | 0.00 | 0.03 | 0.03 | 53 | 1025.9 |
| 20260906094005 | 16 | 311 | 9.7 | 17.7 | 0.00 | 0.03 | 0.03 | 54 | 1025.5 |
| 20260906093005 | 16 | 343 | 8.0 | 22.5 | 0.00 | 0.03 | 0.03 | 55 | 1025.5 |
| 20260906092005 | 15 | 278 | 3.2 | 37.0 | 0.00 | 0.03 | 0.03 | 57 | 1025.5 |
| 20260905214004 | 16 | 294 | 6.4 | 12.9 | 0.00 | 0.05 | 0.05 | 55 | 1020.6 |
| 20260905213006 | 16 | 296 | 3.2 | 17.7 | 0.00 | 0.05 | 0.05 | 56 | 1019.9 |
| 20260905212004 | 16 | 235 | 6.4 | 16.1 | 0.00 | 0.05 | 0.05 | 57 | 1019.8 |
| 20260905211004 | 16 | 306 | 3.2 | 9.7 | 0.00 | 0.05 | 0.05 | 56 | 1019.8 |
| 20260905210004 | 16 | 260 | 3.2 | 9.7 | 0.00 | 0.05 | 0.05 | 56 | 1019.9 |
| 20260905205004 | 16 | 235 | 1.6 | 11.3 | 0.00 | 0.05 | 0.05 | 56 | 1019.6 |
| 20260905204004 | 16 | 209 | 1.6 | 9.7 | 0.00 | 0.05 | 0.05 | 55 | 1019.7 |
| 20260905202004 | 16 | 303 | 4.8 | 8.0 | 0.00 | 0.05 | 0.05 | 55 | 1019.9 |
| 20260905200004 | 15 | 259 | 3.2 | 8.0 | 0.00 | 0.05 | 0.05 | 58 | 1019.6 |
| 20260905195004 | 15 | 251 | 4.8 | 6.4 | 0.00 | 0.05 | 0.05 | 58 | 1019.8 |
| 20260905194004 | 15 | 244 | 3.2 | 6.4 | 0.00 | 0.05 | 0.05 | 57 | 1019.6 |